Location: UFOWorks Observatory
(42.1050°N, 72.2350°W)
Time: 15:15:46
(UTC-05:00)

ISS - Visible Passes

Search period start: 26 November 2014 00:00
Search period end: 06 December 2014 00:00
Orbit: 407 x 417 km, 51.6° (Epoch: 26 November)

Date Brightness Start Highest point End Pass type
(mag) Time Alt. Az. Time Alt. Az. Time Alt. Az.
26 Nov -1.0 04:29:40 24° ENE 04:29:40 24° ENE 04:31:26 10° E visible
26 Nov -2.5 06:02:30 13° WNW 06:05:07 38° SW 06:08:12 10° SSE visible
27 Nov -3.4 05:14:56 59° W 05:15:23 70° SW 05:18:40 10° SE visible
28 Nov -0.9 04:27:25 23° ESE 04:27:25 23° ESE 04:28:50 10° ESE visible
28 Nov -1.2 06:00:15 11° W 06:01:51 15° SW 06:03:48 10° SSW visible
29 Nov -1.8 05:12:46 24° SSW 05:12:46 24° SSW 05:14:57 10° SSE visible
30 Nov -0.2 04:25:19 11° SSE 04:25:19 11° SSE 04:25:32 10° SE visible
